Brownsville, TX

1:49 PM CST on January 20, 2018 (GMT -0600)
Brownsville-South Padre I International

Weather History for KBRO - June, 2013

Change the Weather History Date:

Thursday, June 13, 2013

  Actual Average Record
Temperature  
Mean Temperature 84 °F 84 °F  
Max Temperature 92 °F 92 °F 97 °F (1911)
Min Temperature 76 °F 76 °F 59 °F (1903)
Degree Days  
Heating Degree Days 0 0  
Month to date heating degree days 0 0  
Since 1 June heating degree days 0 0  
Since 1 July heating degree days 329 554  
Cooling Degree Days 19 19  
Month to date cooling degree days 251 240  
Year to date cooling degree days 1373 1333  
Since 1 June cooling degree days 251 240  
Growing Degree Days 33 (Base 50)    
Moisture  
Dew Point 77 °F    
Average Humidity 80    
Maximum Humidity 100    
Minimum Humidity 59    
Precipitation  
Precipitation 0.34 in 0.07 in 3.06 in (1974)
Month to date precipitation 0.82 1.01  
Year to date precipitation 6.42 8.77  
Sea Level Pressure  
Sea Level Pressure 29.96 in    
Wind  
Wind Speed 11 mph (SE)    
Max Wind Speed 23 mph    
Max Gust Speed 30 mph    
Visibility 10 miles    
Events Rain    
T = Trace of Precipitation, MM = Missing Value Source: NWS Daily Summary

Daily Weather History Graph

Daily Weather History Graph

Search for Another Location

Airport or City:

Trip Planner

Search our weather history database for the weather conditions in past years. The results will help you decide how hot, cold, wet, or windy it might be!

Date:

Astronomy

Jun. 13, 2013 Rise Set
Actual Time 6:37 AM CDT 8:22 PM CDT
Civil Twilight 6:11 AM CDT 8:48 PM CDT
Nautical Twilight 5:40 AM CDT 9:19 PM CDT
Astronomical Twilight 5:07 AM CDT 9:52 PM CDT
Moon 10:54 AM CDT (6/13) 11:54 PM CDT (6/13)
Length of Visible Light 14h 36m
Length of Day
13h 44m
Waxing Crescent, 22% of the Moon is Illuminated
Jun 13
Waxing Crescent
Jun 16
First Quarter
Jun 23
Full
Jun 29
Last Quarter
Jul 8
New

Hourly Weather History & Observations

Time (CDT) Temp. Heat Index Dew Point Humidity Pressure Visibility Wind Dir Wind Speed Gust Speed Precip Events Conditions
12:53 AM 81.0 °F 89.2 °F 79.0 °F 94% 30.00 in 10.0 mi ESE 8.1 mph - N/A   Clear
1:53 AM 81.0 °F 89.2 °F 79.0 °F 94% 29.99 in 10.0 mi SE 6.9 mph - N/A   Partly Cloudy
2:53 AM 80.1 °F 86.7 °F 79.0 °F 96% 29.97 in 10.0 mi ESE 6.9 mph - N/A   Scattered Clouds
3:00 AM 80.6 °F 88.1 °F 78.8 °F 94% 29.98 in 10.0 mi ESE 6.9 mph - N/A   Mostly Cloudy
3:21 AM 80.6 °F 88.1 °F 78.8 °F 94% 29.97 in 10.0 mi ESE 6.9 mph - N/A   Mostly Cloudy
3:53 AM 81.0 °F 89.2 °F 79.0 °F 94% 29.96 in 10.0 mi ESE 4.6 mph - N/A   Overcast
4:13 AM 80.6 °F 88.1 °F 78.8 °F 94% 29.97 in 10.0 mi ESE 5.8 mph - N/A   Mostly Cloudy
4:53 AM 77.0 °F - 75.0 °F 94% 29.96 in 3.0 mi East 12.7 mph 19.6 mph 0.10 in Rain Heavy Rain
5:09 AM 77.0 °F - 75.2 °F 94% 29.97 in 8.0 mi SE 8.1 mph 18.4 mph 0.19 in Rain Rain
5:53 AM 77.0 °F - 77.0 °F 100% 29.96 in 10.0 mi SE 6.9 mph - 0.24 in   Mostly Cloudy
6:53 AM 78.1 °F - 78.1 °F 100% 29.97 in 10.0 mi SE 6.9 mph - N/A   Clear
7:53 AM 79.0 °F - 75.0 °F 88% 29.98 in 10.0 mi SE 6.9 mph - N/A   Clear
8:53 AM 82.0 °F 91.6 °F 79.0 °F 90% 30.00 in 10.0 mi SE 5.8 mph - N/A   Scattered Clouds
9:53 AM 82.9 °F 94.8 °F 80.1 °F 91% 30.00 in 10.0 mi SE 10.4 mph - N/A   Clear
10:53 AM 84.9 °F 98.9 °F 80.1 °F 85% 30.01 in 10.0 mi SSE 12.7 mph - 0.00 in   Mostly Cloudy
11:06 AM 87.8 °F 104.9 °F 80.6 °F 79% 30.01 in 10.0 mi SSE 13.8 mph 19.6 mph N/A   Scattered Clouds
11:53 AM 87.1 °F 99.8 °F 78.1 °F 74% 30.00 in 10.0 mi SSE 16.1 mph - N/A   Partly Cloudy
12:53 PM 90.0 °F 102.5 °F 77.0 °F 65% 29.99 in 10.0 mi SSE 17.3 mph - N/A   Partly Cloudy
1:53 PM 91.9 °F 103.2 °F 75.0 °F 58% 29.98 in 10.0 mi SSE 17.3 mph 29.9 mph N/A   Clear
2:53 PM 90.0 °F 99.0 °F 73.9 °F 59% 29.96 in 10.0 mi SSE 18.4 mph 24.2 mph N/A   Clear
3:53 PM 90.0 °F 99.0 °F 73.9 °F 59% 29.94 in 10.0 mi SE 15.0 mph 21.9 mph N/A   Partly Cloudy
4:53 PM 88.0 °F 95.6 °F 73.0 °F 61% 29.92 in 10.0 mi SE 13.8 mph - N/A   Clear
5:53 PM 86.0 °F 95.1 °F 75.0 °F 70% 29.91 in 10.0 mi ESE 13.8 mph 20.7 mph N/A   Clear
6:53 PM 86.0 °F 96.0 °F 75.9 °F 72% 29.92 in 10.0 mi ESE 9.2 mph - N/A   Scattered Clouds
7:53 PM 82.9 °F 90.8 °F 75.9 °F 79% 29.92 in 10.0 mi ESE 13.8 mph - N/A   Partly Cloudy
8:53 PM 82.0 °F 90.2 °F 77.0 °F 85% 29.91 in 10.0 mi ESE 10.4 mph - N/A   Clear
9:53 PM 81.0 °F 88.6 °F 78.1 °F 91% 29.91 in 10.0 mi ESE 10.4 mph - N/A   Clear
10:53 PM 81.0 °F 88.6 °F 78.1 °F 91% 29.93 in 10.0 mi ESE 8.1 mph - N/A   Clear
11:53 PM 81.0 °F 88.6 °F 78.1 °F 91% 29.94 in 10.0 mi SE 9.2 mph - N/A   Clear